Granada, Spain

3:24 AM CEST on April 25, 2017 (GMT +0200)
Granada

Weather History for LEGR - February, 2014

Change the Weather History Date:

Friday, February 14, 2014

  Actual Average Record
Temperature  
Mean Temperature 56 °F -  
Max Temperature 70 °F 61 °F 77 °F (2000)
Min Temperature 42 °F 35 °F 21 °F (2012)
Degree Days  
Heating Degree Days 9    
Growing Degree Days 6 (Base 50)    
Moisture  
Dew Point 46 °F    
Average Humidity 74    
Maximum Humidity 100    
Minimum Humidity 27    
Precipitation  
Precipitation 0.00 in - - ()
Sea Level Pressure  
Sea Level Pressure 30.05 in    
Wind  
Wind Speed 4 mph ()    
Max Wind Speed 21 mph    
Max Gust Speed 17 mph    
Visibility 8.1 miles    
Events Fog    
Averages and records for this station are not official NWS values.
T = Trace of Precipitation, MM = Missing Value Source: Averaged Metar Reports

Daily Weather History Graph

Daily Weather History Graph

Search for Another Location

Airport or City:

Trip Planner

Search our weather history database for the weather conditions in past years. The results will help you decide how hot, cold, wet, or windy it might be!

Date:

Astronomy

Feb. 14, 2014 Rise Set
Actual Time 8:05 AM CET 6:53 PM CET
Civil Twilight 7:38 AM CET 7:20 PM CET
Nautical Twilight 7:08 AM CET 7:51 PM CET
Astronomical Twilight 6:37 AM CET 8:21 PM CET
Moon 6:43 PM CET (2/14) 7:24 AM CET (2/14)
Length of Visible Light 11h 41m
Length of Day
10h 48m
Full, 100% of the Moon is Illuminated
Feb 14
Full
Feb 15
Full
Feb 22
Last Quarter
Mar 1
New
Mar 8
First Quarter

Hourly Weather History & Observations

Time (CET) Temp. Windchill Dew Point Humidity Pressure Visibility Wind Dir Wind Speed Gust Speed Precip Events Conditions
12:00 AM 53 °F - 51 °F 92% 30.22 in 19 mi SSE 3.5 mph - -  
1:00 AM 51 °F - 50 °F 93% 30.21 in 19 mi South 4.6 mph - -   Clear
2:00 AM 51 °F - 50 °F 96% 30.19 in 19 mi SSW 2.3 mph - -  
3:00 AM 50 °F - 49 °F 95% 30.19 in 16 mi Calm Calm - -  
4:00 AM 49 °F - 48 °F 93% 30.18 in 17 mi Calm Calm - -  
5:00 AM 47 °F - 46 °F 95% 30.17 in 10 mi SE 4.6 mph - -  
6:00 AM 46 °F - 45 °F 95% 30.16 in 7 mi Calm Calm - -  
6:00 AM 46.4 °F - 46.4 °F 100% 30.12 in 6.2 mi Calm Calm - N/A   Partly Cloudy
6:30 AM 44.6 °F 43.1 °F 44.6 °F 100% 30.12 in 6.2 mi West 3.5 mph - N/A   Partly Cloudy
7:00 AM 45 °F - 45 °F 98% 30.16 in 4 mi WSW 2.3 mph - -   Mist
7:00 AM 44.6 °F - 44.6 °F 100% 30.12 in 6.2 mi Variable 1.2 mph - N/A   Partly Cloudy
7:30 AM 42.8 °F - 42.8 °F 100% 30.12 in 5.0 mi Variable 1.2 mph - N/A   Partly Cloudy
7:50 AM 44.6 °F - 44.6 °F 100% 30.12 in 2.5 mi Variable 2.3 mph - N/A Fog Patches of Fog
8:00 AM 43 °F - 43 °F 100% 30.15 in 0 mi South 4.6 mph - - Fog Partial Fog
8:00 AM 44.6 °F 43.1 °F 44.6 °F 100% 30.12 in 0.4 mi SSW 3.5 mph - N/A Fog Fog
8:09 AM 44.6 °F 43.1 °F 44.6 °F 100% 30.09 in 0.2 mi South 3.5 mph - N/A Fog Fog
8:20 AM 44.6 °F 43.1 °F 44.6 °F 100% 30.09 in 0.6 mi South 3.5 mph - N/A Fog Fog
8:30 AM 44.6 °F 43.1 °F 44.6 °F 100% 30.09 in 0.6 mi SSW 3.5 mph - N/A Fog Patches of Fog
8:41 AM 46.4 °F - 46.4 °F 100% 30.09 in 1.2 mi Variable 1.2 mph - N/A Fog Patches of Fog
9:00 AM 47 °F - 47 °F 99% 30.14 in 1 mi Calm Calm - - Fog Fog
9:00 AM 46.4 °F - 46.4 °F 100% 30.09 in 0.3 mi Calm Calm - N/A Fog Fog
9:30 AM 48.2 °F - 48.2 °F 100% 30.09 in 0.1 mi Calm Calm - N/A Fog Fog
10:00 AM 49 °F - 48 °F 97% 30.13 in 0 mi NNW 1.2 mph - - Fog Heavy Fog
10:00 AM 48.2 °F - 48.2 °F 100% 30.09 in 0.1 mi Calm Calm - N/A Fog Fog
10:30 AM 48.2 °F - 48.2 °F 100% 30.09 in 0.1 mi Calm Calm - N/A Fog Fog
11:00 AM 50.0 °F - 50.0 °F 100% 30.09 in 0.2 mi Calm Calm - N/A Fog Fog
11:22 AM 51.8 °F - 51.8 °F 100% 30.09 in 0.4 mi Calm Calm - N/A Fog Fog
11:30 AM 51.8 °F - 51.8 °F 100% 30.09 in 1.9 mi Calm Calm - N/A Fog Patches of Fog
11:34 AM 53.6 °F - 51.8 °F 94% 30.09 in 6.2 mi Calm Calm - N/A Fog Partly Cloudy
12:00 PM 58 °F - 53 °F 77% 30.06 in 7 mi Calm Calm - - Fog Fog
12:00 PM 55.4 °F - 53.6 °F 94% 30.06 in 6.2 mi Calm Calm - N/A   Partly Cloudy
12:30 PM 59.0 °F - 55.4 °F 88% 30.06 in 6.2 mi Calm Calm - N/A   Partly Cloudy
1:00 PM 66 °F - 52 °F 51% 29.99 in 19 mi WNW 5.8 mph - -   Partly Cloudy
1:00 PM 64.4 °F - 51.8 °F 64% 30.04 in 6.2 mi WNW 5.8 mph - N/A   Partly Cloudy
1:30 PM 68.0 °F - 50.0 °F 52% 30.04 in 6.2 mi West 5.8 mph 17.3 mph N/A   Partly Cloudy
2:00 PM 70 °F - 46 °F 31% 29.96 in 19 mi SW 20.7 mph - -   Partly Cloudy
2:00 PM 68.0 °F - 46.4 °F 46% 30.01 in 6.2 mi WSW 18.4 mph - N/A   Partly Cloudy
2:30 PM 69.8 °F - 46.4 °F 43% 30.01 in 6.2 mi WSW 17.3 mph - N/A   Partly Cloudy
3:00 PM 70 °F - 47 °F 32% 29.94 in 19 mi SW 19.6 mph - -  
3:00 PM 68.0 °F - 46.4 °F 46% 30.01 in 6.2 mi SW 19.6 mph - N/A   Partly Cloudy
3:30 PM 69.8 °F - 46.4 °F 43% 29.98 in 6.2 mi SW 17.3 mph - N/A   Partly Cloudy
4:00 PM 70 °F - 47 °F 32% 29.91 in 19 mi SW 15.0 mph - -   Scattered Clouds
4:00 PM 68.0 °F - 46.4 °F 46% 29.98 in 6.2 mi SW 15.0 mph - N/A   Partly Cloudy
4:30 PM 68.0 °F - 44.6 °F 43% 29.98 in 6.2 mi WSW 15.0 mph - N/A   Partly Cloudy
5:00 PM 70 °F - 43 °F 27% 29.90 in 19 mi WSW 12.7 mph - -  
5:00 PM 68.0 °F - 46.4 °F 46% 29.95 in 6.2 mi WSW 11.5 mph - N/A   Partly Cloudy
5:30 PM 68.0 °F - 41.0 °F 37% 29.95 in 6.2 mi SSW 12.7 mph - N/A   Partly Cloudy
6:00 PM 67 °F - 42 °F 29% 29.90 in 19 mi SSW 8.1 mph - -  
6:00 PM 66.2 °F - 42.8 °F 43% 29.95 in 6.2 mi SSW 8.1 mph - N/A   Partly Cloudy
6:30 PM 64.4 °F - 42.8 °F 45% 29.95 in 6.2 mi SW 4.6 mph - N/A   Partly Cloudy
7:00 PM 60 °F - 44 °F 45% 29.93 in 19 mi South 5.8 mph - -   Scattered Clouds
7:00 PM 60.8 °F - 44.6 °F 55% 29.95 in 6.2 mi South 5.8 mph - N/A   Partly Cloudy
7:30 PM 59.0 °F - 44.6 °F 59% 29.98 in 6.2 mi SSE 3.5 mph - N/A   Partly Cloudy
8:00 PM 58 °F - 42 °F 45% 29.96 in 17 mi SW 4.6 mph - -  
8:00 PM 59.0 °F - 42.8 °F 55% 29.98 in 6.2 mi SW 3.5 mph - N/A   Partly Cloudy
8:30 PM 57.2 °F - 42.8 °F 59% 29.98 in - WSW 8.1 mph - N/A   Clear
9:00 PM 54 °F - 42 °F 54% 29.97 in 17 mi SSW 10.4 mph - -  
9:00 PM 53.6 °F - 42.8 °F 67% 29.98 in - SW 9.2 mph - N/A   Clear
9:30 PM 50.0 °F - 42.8 °F 76% 29.98 in - WSW 5.8 mph - N/A   Clear
10:00 PM 50 °F - 41 °F 63% 29.98 in 19 mi SW 8.1 mph - -   Clear
10:00 PM 50.0 °F - 42.8 °F 76% 29.98 in - SW 8.1 mph - N/A   Clear
10:30 PM 50.0 °F - 41.0 °F 71% 29.98 in - SW 5.8 mph - N/A   Clear
11:00 PM 47 °F - 42 °F 76% 30.00 in 19 mi WSW 8.1 mph - -  
11:00 PM 48.2 °F - 42.8 °F 82% 29.98 in - WSW 6.9 mph - N/A   Clear